Flag for United Kingdom Weather past 2 weeks in Belfast, Northern Ireland, United Kingdom

Now
63 °F

Broken clouds.


Feels Like: 63 °F
Forecast: 57 / 65 °F
Wind: 9 mph from Northeast

Location: Belfast / Harbour

Current Time: Sep 18, 2014 at 5:43:20 PM

Latest Report: Sep 18, 2014 at 5:20 PM


Visibility: 4 mi

Pressure: 29.86 "Hg

Humidity: 83%

Dew point: 57 °F

Location of BelfastLocation

Historic Weather in Belfast — Graph

°F

Belfast temperature yesterday

Maximum temperature yesterday: 64 °F (at 3:50 PM)
Minimum temperature yesterday: 54 °F (at 8:50 PM)
Average temperature yesterday: 59 °F

Past Weeks' High & Low Weather Summary

 TemperatureHumidityPressure
High72 °F (Sep 4, 3:50 PM)100% (Sep 4, 6:50 AM)30.36 "Hg (Sep 4, 6:50 AM)
Low46 °F (Sep 10, 6:20 AM)55% (Sep 7, 4:20 PM)29.86 "Hg (Sep 18, 2:20 PM)
Average60 °F79%30.12 "Hg
* Reported Sep 3 4:20 PM — Sep 18 4:20 PM, Belfast, Weather by CustomWeather, © 2014

Note: Actual official high and low records may vary slightly from our data, if they occured in-between our weather recording intervals... More about our weather records

Advertising

Belfast weather history for previous 24 hours

 ConditionsComfort  
Time TempWeatherWind HumidityBarometerVisibility
4:20 PM
Sep 18
64 °FScattered clouds.8 mph83%29.86 "Hg4 mi
3:50 PM64 °FScattered clouds.9 mph83%29.86 "Hg4 mi
3:20 PM64 °FScattered clouds.8 mph83%29.86 "Hg4 mi
2:50 PM66 °FScattered clouds.9 mph78%29.86 "Hg6 mi
2:20 PM66 °FBroken clouds.10 mph78%29.86 "Hg4 mi
1:50 PM64 °FBroken clouds.12 mph83%29.89 "Hg4 mi
1:20 PM64 °FBroken clouds.9 mph83%29.89 "Hg4 mi
12:50 PM64 °FBroken clouds.8 mph83%29.89 "Hg4 mi
12:20 PM64 °FBroken clouds.8 mph83%29.89 "Hg6 mi
11:50 AM63 °FBroken clouds.9 mph88%29.89 "Hg6 mi
11:20 AM61 °FBroken clouds.7 mph88%29.89 "Hg6 mi
10:50 AM61 °FBroken clouds.9 mph88%29.89 "Hg6 mi
10:20 AM61 °FBroken clouds.9 mph88%29.89 "Hg6 mi
9:50 AM59 °FBroken clouds.9 mph94%29.89 "Hg6 mi
9:20 AM59 °FBroken clouds.7 mph88%29.89 "Hg6 mi
8:50 AM59 °FScattered clouds.5 mph88%29.89 "Hg6 mi
8:20 AM57 °FPassing clouds.3 mph94%29.89 "Hg6 mi
7:50 AM57 °FPassing clouds.No wind94%29.89 "Hg6 mi
7:20 AM57 °FFog.No wind94%29.89 "HgN/A
6:50 AM57 °FFog.5 mph94%29.89 "HgN/A
6:20 AM57 °FPassing clouds.6 mph94%29.89 "HgN/A
9:20 PM
Sep 17
54 °FClear.7 mph94%29.95 "Hg10 mi
8:50 PM54 °FPassing clouds.6 mph94%29.95 "HgN/A
8:20 PM55 °FPassing clouds.2 mph88%29.95 "HgN/A
7:50 PM55 °FPassing clouds.5 mph88%29.95 "Hg5 mi
7:20 PM57 °FPassing clouds.3 mph82%29.95 "Hg5 mi
6:50 PM59 °FPassing clouds.6 mph82%29.95 "Hg5 mi
6:20 PM61 °FPassing clouds.8 mph83%29.92 "Hg5 mi
5:50 PM63 °FPassing clouds.9 mph77%29.92 "Hg6 mi
5:20 PM63 °FPassing clouds.9 mph77%29.92 "Hg6 mi
Weather by CustomWeather, © 2014

See weather overviewHow to use our weather pages